Location: Ammerl�gen
(47.2167°N, 9.6000°E)
Time: 10:43:09
(UTC+00:00)

Cosmos 1812 Rocket - Pass Details

Date: 21 April 2021
Orbit: 606 x 631 km, 82.5° (Epoch: 06 May)

Event Time Altitude Azimuth Distance (km) Brightness Sun altitude
Exits shadow 19:58:57 - 192° (SSW) 2,569 6.5 -15.6°
Reaches altitude 10° 20:00:22 10° 193° (SSW) 1,996 5.9 -15.8°
Maximum altitude 20:04:48 78° 279° (W) 650 3.7 -16.4°
Drops below altitude 10° 20:09:18 10° 7° (N) 2,022 6.6 -17.0°
Sets 20:11:33 0° 9° (N) 2,936 7.5 -17.3°
